Powrót do katalogu

CZ-6A DEB

AktywnyPO
NORAD 60687·DEBRIS·🇨🇳 China

Wystrzelony Aug 6, 2024 z Taiyuan Satellite Launch Center

Loading…

Następne Przeloty (najbliższe 24 godziny)

TLE

ŚwieżeSource: Space-Track

Epoka: Sep 14, 2026, 11:23 UTC

1 60687U 24140CQ  26257.47485665  .00000702  00000-0  33158-3 0  9997
2 60687  89.0041 265.8257 0055838 275.3593  84.1227 14.17944555108513

Śledź CZ-6A DEB w czasie rzeczywistym z AllMySat

Download on the App Store